Location: Trebic
(49.2170°N, 15.8830°E)
Time: 18:07:40
(UTC+02:00)

Transit 2A Rocket - Pass Details

Date: 28 July 2019
Orbit: 590 x 913 km, 66.7° (Epoch: 22 August)

Event Time Altitude Azimuth Distance (km) Brightness Sun altitude
Rises 04:06:18 0° 248° (WSW) 3,484 - -10.5°
Exits shadow 04:08:40 - 255° (WSW) 2,665 7.3 -10.3°
Reaches altitude 10° 04:09:07 10° 257° (WSW) 2,512 7.2 -10.2°
Maximum altitude 04:14:18 32° 320° (NW) 1,382 6.4 -9.6°
Drops below altitude 10° 04:19:10 10° 24° (NNE) 2,344 8.8 -9.1°
Sets 04:21:44 0° 34° (NE) 3,219 10.2 -8.7°
